Regional Weather Roundup
Issued by NWS Sioux Falls, SD

Home | Current Version | Previous Version | Graphics & Text | Print | Product List | Glossary On
Versions: 1 2 3 4 5 6 7 8 9 10 11 12 13 14 15 16 17 18 19 20 21 22 23 24 25 26 27 28 29 30 31 32 33 34 35 36 37 38 39 40 41 42 43 44 45 46 47 48 49 50
000
ASUS43 KFSD 020510
RWRFSD

WEATHER ROUNDUP FOR SE SOUTH DAKOTA/SW MINNESOTA/NW IOWA
NATIONAL WEATHER SERVICE SIOUX FALLS SD
1200 AM CDT THU JUL 02 2015

NOTE: "FAIR" INDICATES FEW OR NO CLOUDS BELOW 12,000 FEET WITH NO
SIGNIFICANT WEATHER AND OR OBSTRUCTIONS TO VISIBILITY.


SDZ038>040-050-052>070-020600-
SOUTHEAST SOUTH DAKOTA

CITY           SKY/WX    TMP DP  RH WIND       PRES   REMARKS
BROOKINGS      CLEAR     63  54  72 SE8       30.02R
CHAMBERLAIN    NOT AVBL
HURON          CLEAR     65  59  81 SE8       29.97R
MITCHELL       PTCLDY    67  64  90 SE7       29.97R
SIOUX FALLS    MOCLDY    63  57  81 E7        29.99R
WINNER         FAIR      69  64  84 E8        29.97R
YANKTON        PTCLDY    66  61  82 E8        29.95R
$$

MNZ071-072-080-081-089-090-097-098-020600-
SOUTHWEST MINNESOTA

CITY           SKY/WX    TMP DP  RH WIND       PRES   REMARKS
FAIRMONT       CLEAR     54  48  82 CALM      30.01R
LUVERNE        CLEAR     61  55  82 CALM      30.01R
MARSHALL       CLEAR     57  50  77 SE6       30.00S
REDWOOD FALLS  CLEAR     57  52  83 SE3       30.01S
WORTHINGTON    CLEAR     57  52  82 E5        30.02R
$$

IAZ001>003-012>014-020>022-031-032-NEZ013-014-SDZ071-020600-
NORTHWEST IOWA

CITY           SKY/WX    TMP DP  RH WIND       PRES   REMARKS
ESTHERVILLE    CLEAR     53  52  96 NE5       30.01R
SIOUX CITY     PTCLDY    66  58  75 E7        29.96R
SPENCER        PTCLDY    57  52  83 NE6       30.01R
$$

ABBREVIATIONS USED IN REMARKS
   TC - TEMPERATURE IN CELSIUS
  WCI - WIND CHILL INDEX
   HX - HEAT INDEX
  VSB - VISIBILITY



USA.gov is the U.S. government's official web portal to all federal, state and local government web resources and services.